Regional Weather Roundup
Issued by NWS Green Bay, WI

Home | Current Version | Previous Version | Graphics & Text | Print | Product List | Glossary Off
Versions: 1 2 3 4 5 6 7 8 9 10 11 12 13 14 15 16 17 18 19 20 21 22 23 24 25 26 27 28 29 30 31 32 33 34 35 36 37 38 39 40 41 42 43 44 45 46 47 48 49 50

000
ASUS43 KGRB 262111
RWRGRB

NORTH-CENTRAL AND NORTHEAST WISCONSIN REGIONAL WEATHER ROUNDUP
NATIONAL WEATHER SERVICE GREEN BAY WI
400 PM CDT FRI MAY 26 2017

WIZ005-009-010>012-018-019-262200-
NORTH CENTRAL WISCONSIN

CITY           SKY/WX    TMP DP  RH WIND       PRES   REMARKS
IRONWOOD       CLOUDY    67  56  67 SW3       29.77S
MANITOWISH WTR CLOUDY    67  55  65 S12G17    29.79F
ARBOR VITAE    CLOUDY    67  55  64 S9        29.80S
EAGLE RIVER    PTSUNNY   64  56  75 CALM      29.80F
LAND O LAKES   PTSUNNY   69  53  58 S8        29.82S
RHINELANDER    CLOUDY    69  52  54 S9        29.81F
PHILLIPS       CLOUDY    67  55  66 S8        29.78F
ANTIGO         CLOUDY    70  55  60 S8        29.82F
TOMAHAWK       CLOUDY    69  53  56 S5        29.80S
MERRILL        CLOUDY    71  55  56 SE8       29.80F
$$

WIZ013-073-262200-
NORTHEAST WISCONSIN

CITY           SKY/WX    TMP DP  RH WIND       PRES   REMARKS
IRON MOUNTAIN  LGT RAIN  64  56  75 S6        29.81F
MARINETTE      CLOUDY    66  53  63 S9        29.84F
OCONTO         CLOUDY    65  54  65 SE9       29.83F
$$

WIZ017-030-035>037-045-262200-
CENTRAL WISCONSIN

CITY           SKY/WX    TMP DP  RH WIND       PRES   REMARKS
MEDFORD        CLOUDY    67  56  65 S9        29.79F
WAUSAU         CLOUDY    70  55  59 S9        29.79F
MOSINEE        PTSUNNY   68  55  64 S10       29.82F
MARSHFIELD     PTSUNNY   72  51  47 S10G22    29.79S
WISC RAPIDS    CLOUDY    73  54  51 SW12      29.81F
STEVENS POINT  MOSUNNY   71  52  52 S12G17    29.81F
WAUPACA        CLOUDY    73  57  57 E6        29.81F
SHAWANO        CLOUDY    74  53  49 SW7       29.82S
CLINTONVILLE   CLOUDY    72  54  53 S9        29.82S
WAUTOMA        CLOUDY    71  55  56 S9        29.82S
$$

WIZ038-039-048-051-262200-
FOX VALLEY

CITY           SKY/WX    TMP DP  RH WIND       PRES   REMARKS
NWS GREEN BAY  MOSUNNY   69  59  70 S12       29.83S
APPLETON       PTSUNNY   68  54  60 SE8       29.82F
OSHKOSH        CLOUDY    69  56  62 S10       29.81F
FOND DU LAC    CLOUDY    69  53  56 SE9       29.83F
$$

WIZ022-050-052-262200-
EAST CENTRAL WISCONSIN

CITY           SKY/WX    TMP DP  RH WIND       PRES   REMARKS
EPHRAIM        FAIR      63  52  67 S6        29.85S
WASHINGTON ISL FAIR      60  51  72 S6        29.84S
STURGEON BAY   CLOUDY    64  52  64 S7        29.85F
MANITOWOC      PTSUNNY   61  52  72 S6        29.86F
SHEBOYGAN      CLOUDY    63  55  75 S6        29.85F
$$

LMZ563-521-522-541>543-262200-
LAKESHORE

STATION/POSITION TIME  TEMP    WIND        PRES    VSBY  WAVE
                       AIR SEA DIR/SP/G                  HT/PER
                 (UTC) (F)     (DEG/KT/KT) (MB)    (MI)  (FT/S)
SHEBOYGAN LKSHOR 2100   54     170/ 10/ 10 1010.8F
KEWAUNEE LKSHORE 2048   50     100/  2/  4 1010.7F
NORTHPORT PIER   2040   50     150/ 10/ 11 1010.8S
N MID LAKE BUOY  2050   43 43  220/  6/  6 1011.8F         0
CHAMBERS ISLAND  2040   60     340/  4/  4 1010.5S
MENOMINEE LKSHOR 2048          140/ 11/ 12 1009.7F
$$



USA.gov is the U.S. government's official web portal to all federal, state and local government web resources and services.